Latest Weather Observations for Whyalla

IDS60801

Issued at 5:01 pm CDT Saturday 25 February 2017 (issued every 30 minutes, with the page automatically refreshed every 10 minutes)

About weather observations | Map of weather stations | Latest weather observations for SA | Other Formats
Station Details ID: 018120 Name: WHYALLA AERO Lat: -33.05 Lon: 137.52 Height: 9.3 m
Data from the previous 72 hours. | See also: Recent months at Whyalla
Date/Time
CDT
Temp
°C
App
Temp
°C
Dew
Point
°C
Rel
Hum
%
Delta-T
°C
Wind Press
QNH
hPa
Press
MSL
hPa
Rain since
9am
mm
Dir  Spd
km/h
Gust
km/h
Spd
kts
Gust
kts
25/05:00pm 23.7 16.8 11.7 47 6.8 SSW 39 48 21 26 1019.7 1019.6 0.0
25/04:30pm 23.9 17.4 11.6 46 6.9 SSW 37 46 20 25 1020.0 1019.9 0.0
25/04:00pm 23.5 17.1 11.9 48 6.6 SSW 37 46 20 25 1020.3 1020.2 0.0
25/03:30pm 23.7 18.2 12.4 49 6.4 S 33 44 18 24 1020.8 1020.7 0.0
25/03:00pm 24.0 18.5 12.0 47 6.8 S 32 41 17 22 1021.4 1021.3 0.0
25/02:30pm 23.1 17.6 10.5 45 6.9 S 30 41 16 22 1021.7 1021.6 0.0
25/02:00pm 23.6 18.5 10.6 44 7.2 S 28 37 15 20 1022.1 1022.0 0.0
25/01:30pm 23.9 19.0 11.3 45 7.0 S 28 37 15 20 1022.4 1022.3 0.0
25/01:00pm 23.3 18.4 11.4 47 6.7 S 28 39 15 21 1022.8 1022.7 0.0
25/12:30pm 21.4 16.5 11.4 53 5.5 S 28 35 15 19 1023.1 1023.0 0.0
25/12:00pm 21.3 16.7 11.1 52 5.6 S 26 35 14 19 1023.5 1023.4 0.0
25/11:30am 20.7 16.1 11.1 54 5.3 S 26 35 14 19 1023.8 1023.7 0.0
25/11:00am 20.7 16.1 11.1 54 5.3 SSE 26 37 14 20 1023.8 1023.7 0.0
25/10:30am 20.1 15.2 11.3 57 4.8 SE 28 41 15 22 1023.9 1023.8 0.0
25/10:00am 19.2 14.5 10.7 58 4.6 SE 26 35 14 19 1023.7 1023.6 0.0
25/09:30am 19.1 14.8 10.6 58 4.6 SE 24 37 13 20 1024.0 1023.9 0.0
25/09:00am 18.8 14.6 11.1 61 4.2 SE 24 32 13 17 1024.1 1024.0 0.0
25/08:30am 18.1 13.4 10.7 62 4.0 SE 26 33 14 18 1024.0 1023.9 0.0
25/08:00am 17.7 13.8 10.8 64 3.7 SSE 22 32 12 17 1024.0 1023.9 0.0
25/07:30am 17.0 13.5 10.8 67 3.3 SE 20 28 11 15 1023.6 1023.5 0.0
25/07:00am 16.6 13.7 10.9 69 3.1 SE 17 28 9 15 1023.3 1023.2 0.0
25/06:30am 16.5 14.0 11.2 71 2.8 SSE 15 20 8 11 1023.1 1023.0 0.0
25/06:00am 16.7 14.3 11.4 71 2.9 SSE 15 22 8 12 1023.0 1022.9 0.0
25/05:30am 16.8 14.0 11.5 71 2.9 SSE 17 24 9 13 1023.0 1022.9 0.0
25/05:00am 17.0 14.0 12.1 73 2.7 SSE 19 26 10 14 1022.7 1022.6 0.0
25/04:30am 17.1 13.7 12.4 74 2.6 SSE 22 32 12 17 1022.8 1022.7 0.0
25/04:00am 17.3 13.6 12.6 74 2.6 SSE 24 35 13 19 1022.9 1022.8 0.0
25/03:30am 17.2 14.2 12.7 75 2.5 SSE 20 30 11 16 1023.0 1022.9 0.0
25/03:00am 17.4 14.1 12.9 75 2.5 SSE 22 32 12 17 1023.0 1022.9 0.0
25/02:30am 17.6 13.9 12.7 73 2.7 SSE 24 35 13 19 1023.3 1023.2 0.0
25/02:00am 17.6 13.8 12.3 71 2.9 SSE 24 33 13 18 1023.7 1023.6 0.0
25/01:30am 17.8 13.9 12.0 69 3.2 SSE 24 37 13 20 1023.8 1023.7 0.0
25/01:00am 18.0 14.4 12.0 68 3.3 SSE 22 33 12 18 1024.2 1024.1 0.0
25/12:30am 18.2 13.6 12.4 69 3.2 SSE 28 41 15 22 1024.1 1024.0 0.0
25/12:00am 18.4 14.0 12.8 70 3.1 SSE 28 37 15 20 1024.2 1024.1 0.0
 
Date/Time
CDT
Temp
°C
App
Temp
°C
Dew
Point
°C
Rel
Hum
%
Delta-T
°C
Wind Press
QNH
hPa
Press
MSL
hPa
Rain since
9am
mm
Dir  Spd
km/h
Gust
km/h
Spd
kts
Gust
kts
24/11:30pm 18.5 13.6 12.7 69 3.2 SSE 30 41 16 22 1024.4 1024.3 0.0
24/11:00pm 18.7 14.4 13.1 70 3.2 SSE 28 39 15 21 1024.6 1024.5 0.0
24/10:30pm 18.8 14.0 13.0 69 3.3 S 30 39 16 21 1024.7 1024.6 0.0
24/10:00pm 19.1 14.1 13.3 69 3.3 SSE 32 44 17 24 1024.6 1024.5 0.0
24/09:30pm 19.6 14.6 13.3 67 3.6 SSE 32 43 17 23 1024.3 1024.2 0.0
24/09:00pm 20.3 15.9 12.8 62 4.2 SSE 28 41 15 22 1023.9 1023.8 0.0
24/08:30pm 20.7 16.0 14.8 69 3.4 SSW 33 44 18 24 1023.5 1023.4 0.0
24/08:21pm 20.4 15.6 14.7 70 3.3 SSW 33 52 18 28 1023.5 1023.4 0.0
24/08:00pm 20.5 15.4 14.8 70 3.3 SSW 35 48 19 26 1023.4 1023.3 0.0
24/07:30pm 20.9 14.6 14.5 67 3.7 SSW 41 56 22 30 1023.2 1023.1 0.0
24/07:00pm 21.3 14.2 14.0 63 4.2 SSW 44 56 24 30 1023.0 1022.9 0.0
24/06:45pm 22.0 15.9 14.1 61 4.6 SSW 39 57 21 31 1023.0 1022.9 0.0
24/06:30pm 22.1 15.6 14.0 60 4.7 SSW 41 57 22 31 1022.8 1022.7 0.0
24/06:00pm 21.8 14.5 13.4 59 4.8 SSW 44 59 24 32 1022.8 1022.7 0.0
24/05:30pm 22.6 15.5 13.9 58 5.1 S 44 56 24 30 1022.9 1022.8 0.0
24/05:00pm 22.3 15.5 14.2 60 4.7 S 43 54 23 29 1022.8 1022.7 0.0
24/04:30pm 22.7 16.0 13.5 56 5.3 S 41 54 22 29 1022.9 1022.8 0.0
24/04:00pm 22.6 16.1 12.8 54 5.6 SSW 39 52 21 28 1023.2 1023.1 0.0
24/03:30pm 22.9 16.7 12.5 52 5.9 S 37 48 20 26 1023.4 1023.3 0.0
24/03:00pm 23.5 18.1 12.8 51 6.1 S 33 46 18 25 1023.8 1023.7 0.0
24/02:30pm 22.8 17.4 12.1 51 6.0 S 32 44 17 24 1024.0 1023.9 0.0
24/02:00pm 22.6 17.3 12.5 53 5.7 S 32 43 17 23 1024.4 1024.3 0.0
24/01:30pm 21.3 16.1 11.6 54 5.4 S 30 43 16 23 1024.8 1024.7 0.0
24/01:00pm 22.1 18.3 13.5 58 5.0 S 26 37 14 20 1025.0 1024.9 0.0
24/12:30pm 21.6 18.0 13.0 58 4.9 S 24 37 13 20 1025.3 1025.2 0.0
24/12:00pm 21.8 17.9 13.2 58 4.9 SSE 26 35 14 19 1025.7 1025.6 0.0
24/11:30am 20.6 16.6 13.1 62 4.2 SSE 26 35 14 19 1025.9 1025.8 0.0
24/11:00am 20.0 15.9 12.7 63 4.1 SSE 26 37 14 20 1026.1 1026.0 0.0
24/10:30am 19.5 16.2 12.8 65 3.8 SE 22 32 12 17 1026.2 1026.1 0.0
24/10:00am 19.4 15.9 13.3 68 3.5 SE 24 32 13 17 1026.1 1026.0 0.0
24/09:30am 19.0 15.4 13.2 69 3.3 SE 24 32 13 17 1026.0 1025.9 0.0
24/09:00am 18.8 15.9 13.9 73 2.8 SE 22 33 12 18 1025.8 1025.7 0.0
24/08:30am 18.3 15.7 13.8 75 2.6 SE 20 26 11 14 1025.4 1025.3 0.0
24/08:00am 18.6 15.4 13.2 71 3.1 SSE 22 35 12 19 1025.2 1025.1 0.0
24/07:30am 18.4 15.3 13.5 73 2.8 SSE 22 32 12 17 1024.8 1024.7 0.0
24/07:00am 18.4 15.0 13.7 74 2.7 SSE 24 33 13 18 1024.4 1024.3 0.0
24/06:30am 18.3 14.9 13.6 74 2.7 SSE 24 32 13 17 1024.1 1024.0 0.0
24/06:00am 18.3 15.8 14.0 76 2.5 SSE 20 32 11 17 1023.9 1023.8 0.0
24/05:30am 18.3 15.4 14.0 76 2.5 SSE 22 33 12 18 1023.6 1023.5 0.0
24/05:00am 18.7 15.9 14.4 76 2.5 SSE 22 32 12 17 1023.4 1023.3 0.0
24/04:30am 18.7 15.9 14.2 75 2.6 SSE 22 32 12 17 1023.3 1023.2 0.0
24/04:00am 19.0 17.1 14.1 73 2.8 SSE 17 24 9 13 1023.2 1023.1 0.0
24/03:30am 18.7 15.9 13.1 70 3.1 SSE 20 28 11 15 1023.4 1023.3 0.0
24/03:00am 18.6 15.8 13.2 71 3.0 S 20 30 11 16 1023.4 1023.3 0.0
24/02:30am 18.8 15.2 13.2 70 3.2 S 24 32 13 17 1023.5 1023.4 0.0
24/02:00am 19.1 15.7 13.7 71 3.1 SSE 24 32 13 17 1023.6 1023.5 0.0
24/01:30am 19.5 16.2 14.1 71 3.1 S 24 37 13 20 1023.6 1023.5 0.0
24/01:00am 19.7 16.4 14.1 70 3.2 S 24 33 13 18 1023.7 1023.6 0.0
24/12:30am 19.8 16.6 14.2 70 3.2 S 24 35 13 19 1023.7 1023.6 0.0
24/12:00am 19.8 16.2 14.2 70 3.2 S 26 33 14 18 1023.6 1023.5 0.0
 
Date/Time
CDT
Temp
°C
App
Temp
°C
Dew
Point
°C
Rel
Hum
%
Delta-T
°C
Wind Press
QNH
hPa
Press
MSL
hPa
Rain since
9am
mm
Dir  Spd
km/h
Gust
km/h
Spd
kts
Gust
kts
23/11:30pm 19.9 16.3 14.3 70 3.2 S 26 35 14 19 1023.5 1023.4 0.0
23/11:00pm 19.9 16.4 14.5 71 3.1 S 26 35 14 19 1023.3 1023.2 0.0
23/10:30pm 20.0 16.2 14.6 71 3.1 S 28 39 15 21 1023.2 1023.1 0.0
23/10:00pm 20.1 16.3 14.7 71 3.2 S 28 37 15 20 1022.9 1022.8 0.0
23/09:30pm 20.2 16.5 13.9 67 3.6 S 26 35 14 19 1022.5 1022.4 0.0
23/09:00pm 20.3 16.3 14.2 68 3.5 SSW 28 35 15 19 1022.2 1022.1 0.0
23/08:30pm 20.5 16.5 14.2 67 3.6 S 28 35 15 19 1021.8 1021.7 0.0
23/08:00pm 21.1 17.1 14.0 64 4.1 S 28 39 15 21 1021.6 1021.5 0.0
23/07:30pm 22.0 17.8 13.6 59 4.8 S 28 37 15 20 1021.2 1021.1 0.0
23/07:00pm 22.5 17.6 12.4 52 5.7 S 30 41 16 22 1020.8 1020.7 0.0
23/06:30pm 23.0 18.4 13.5 55 5.5 S 30 37 16 20 1020.6 1020.5 0.0
23/06:00pm 23.2 19.0 13.4 54 5.7 S 28 37 15 20 1020.5 1020.4 0.0
23/05:30pm 22.9 19.0 13.4 55 5.5 S 26 32 14 17 1020.3 1020.2 0.0
23/05:00pm 24.1 20.7 12.4 48 6.7 S 22 30 12 16 1020.1 1020.0 0.0
23/04:30pm 24.3 20.6 11.6 45 7.2 SSW 22 32 12 17 1020.0 1019.9 0.0
23/04:00pm 24.5 21.9 12.1 46 7.1 S 17 28 9 15 1020.1 1020.0 0.0
23/03:30pm 23.4 21.2 12.1 49 6.4 SSE 15 24 8 13 1020.3 1020.2 0.0
23/03:00pm 22.9 19.8 12.2 51 6.0 SE 20 30 11 16 1020.5 1020.4 0.0
23/02:30pm 22.8 19.5 14.1 58 5.1 SSE 24 33 13 18 1020.7 1020.6 0.0
23/02:00pm 22.7 20.1 13.7 56 5.2 SSE 20 30 11 16 1020.8 1020.7 0.0
23/01:30pm 22.8 20.2 13.8 57 5.2 SE 20 30 11 16 1020.9 1020.8 0.0
23/01:00pm 22.3 19.7 13.9 59 4.9 ESE 20 32 11 17 1021.0 1020.9 0.0
23/12:30pm 22.2 19.9 14.1 60 4.7 SE 19 30 10 16 1021.3 1021.2 0.0
23/12:00pm 22.1 20.5 15.0 64 4.2 SE 17 28 9 15 1021.5 1021.4 0.0
23/11:30am 21.3 19.4 14.2 64 4.1 SE 17 24 9 13 1021.5 1021.4 0.0
23/11:00am 21.4 19.2 15.0 67 3.8 SSE 20 32 11 17 1021.4 1021.3 0.0
23/10:30am 21.4 18.8 14.8 66 3.9 SSE 22 33 12 18 1021.3 1021.2 0.0
23/10:00am 21.5 19.1 14.4 64 4.2 S 20 26 11 14 1021.0 1020.9 0.0
23/09:30am 20.6 18.1 14.0 66 3.8 SSW 20 26 11 14 1020.6 1020.5 0.0
23/09:00am 20.1 17.7 13.8 67 3.6 SW 19 24 10 13 1020.4 1020.3 0.0
23/08:30am 18.0 16.1 12.9 72 2.8 SW 15 22 8 12 1020.3 1020.2 0.0
23/08:00am 15.0 13.6 12.1 83 1.6 W 11 13 6 7 1020.0 1019.9 0.0
23/07:30am 12.5 10.7 10.7 89 0.9 WNW 11 13 6 7 1019.7 1019.6 0.0
23/07:00am 12.5 11.0 10.7 89 0.9 NW 9 11 5 6 1019.3 1019.2 0.0
23/06:30am 12.3 9.9 10.2 87 1.1 NW 13 17 7 9 1018.9 1018.8 0.0
23/06:00am 12.0 9.9 9.7 86 1.2 NNW 11 11 6 6 1018.6 1018.5 0.0
23/05:30am 13.0 11.5 10.5 85 1.3 W 9 11 5 6 1018.1 1018.0 0.0
23/05:00am 13.6 13.2 11.0 84 1.4 W 4 7 2 4 1017.9 1017.8 0.0
23/04:30am 14.1 12.4 11.3 83 1.5 W 11 13 6 7 1017.8 1017.7 0.0
23/04:00am 15.4 14.0 12.3 82 1.7 SW 11 15 6 8 1017.9 1017.8 0.0
23/03:30am 15.5 13.6 11.9 79 1.9 WSW 13 17 7 9 1018.0 1017.9 0.0
23/03:00am 15.6 13.7 11.8 78 2.1 WSW 13 17 7 9 1017.8 1017.7 0.0
23/02:30am 16.1 14.5 11.7 75 2.4 WSW 11 13 6 7 1018.0 1017.9 0.0
23/02:00am 16.9 15.8 11.8 72 2.8 SW 9 13 5 7 1018.0 1017.9 0.0
23/01:30am 18.0 16.2 12.2 69 3.2 SW 13 19 7 10 1018.0 1017.9 0.0
23/01:00am 18.5 15.9 12.0 66 3.6 SW 17 24 9 13 1018.1 1018.0 0.0
23/12:30am 19.0 16.0 11.8 63 4.0 SW 19 26 10 14 1018.1 1018.0 0.0
23/12:00am 19.8 16.5 11.0 57 4.8 SW 19 24 10 13 1017.9 1017.8 0.0
 
Date/Time
CDT
Temp
°C
App
Temp
°C
Dew
Point
°C
Rel
Hum
%
Delta-T
°C
Wind Press
QNH
hPa
Press
MSL
hPa
Rain since
9am
mm
Dir  Spd
km/h
Gust
km/h
Spd
kts
Gust
kts
22/11:30pm 20.3 16.8 11.0 55 5.1 SSW 20 32 11 17 1017.4 1017.3 0.0
22/11:00pm 21.0 17.5 10.2 50 5.8 SSW 19 26 10 14 1017.2 1017.1 0.0
22/10:30pm 21.5 18.1 9.1 45 6.6 SW 17 26 9 14 1016.6 1016.5 0.0
22/10:00pm 22.2 18.5 8.0 40 7.4 SW 17 22 9 12 1016.1 1016.0 0.0
22/09:30pm 23.0 18.4 6.7 35 8.4 SW 20 26 11 14 1015.6 1015.5 0.0
22/09:00pm 23.8 18.9 7.0 34 8.7 SSW 22 32 12 17 1014.9 1014.8 0.0
22/08:30pm 23.3 19.6 14.0 56 5.4 S 26 35 14 19 1014.1 1014.0 0.0
22/08:00pm 23.3 19.6 14.0 56 5.4 SSE 26 35 14 19 1013.5 1013.4 0.0
22/07:30pm 23.8 19.9 14.5 56 5.5 SSE 28 44 15 24 1013.0 1012.9 0.0
22/07:00pm 24.4 19.5 13.6 51 6.3 SSE 32 48 17 26 1012.5 1012.4 0.0
22/06:30pm 25.0 20.5 14.8 53 6.1 SSE 32 44 17 24 1012.1 1012.0 0.0
22/06:00pm 25.9 21.3 14.7 50 6.7 SSE 32 43 17 23 1011.6 1011.5 0.0
22/05:30pm 26.6 23.5 14.4 47 7.3 SSE 24 32 13 17 1011.3 1011.2 0.0

Other Formats:

Comma delimited format used in spreadsheet applications
http://www.bom.gov.au/fwo/IDS60801/IDS60801.95664.axf

JavaScript Object Notation format (JSON) in row-major order
http://www.bom.gov.au/fwo/IDS60801/IDS60801.95664.json